Time,TemperatureF,DewpointF,PressureIn,WindDirection,WindDirectionDegrees,WindSpeedMPH,WindSpeedGustMPH,Humidity,HourlyPrecipIn,Conditions,Clouds,dailyrainin,SoftwareType,DateUTC
2013-06-30 00:04:00,65.1,59.1,29.84,North,0,0.0,0.0,81,0.00,,,0.00,WUHU21623XXSP,2013-06-30 05:04:00,
2013-06-30 00:09:00,64.9,59.0,29.83,North,0,0.0,0.0,81,0.00,,,0.00,WUHU21623XXSP,2013-06-30 05:09:00,
2013-06-30 00:14:00,64.9,59.0,29.83,North,0,0.0,0.0,82,0.00,,,0.00,WUHU21623XXSP,2013-06-30 05:14:00,
2013-06-30 00:19:00,64.9,59.3,29.83,North,0,0.0,0.0,82,0.00,,,0.00,WUHU21623XXSP,2013-06-30 05:19:00,
2013-06-30 00:24:00,64.9,59.3,29.83,North,0,0.0,0.0,82,0.00,,,0.00,WUHU21623XXSP,2013-06-30 05:24:00,
2013-06-30 00:29:00,64.9,59.3,29.84,North,0,0.0,0.0,82,0.00,,,0.00,WUHU21623XXSP,2013-06-30 05:29:00,
2013-06-30 00:34:00,64.9,59.3,29.84,North,0,0.0,0.0,82,0.00,,,0.00,WUHU21623XXSP,2013-06-30 05:34:00,
2013-06-30 00:39:00,64.9,59.3,29.84,North,0,0.0,0.0,82,0.00,,,0.00,WUHU21623XXSP,2013-06-30 05:39:00,
2013-06-30 00:44:00,64.9,59.6,29.84,North,0,0.0,0.0,83,0.00,,,0.00,WUHU21623XXSP,2013-06-30 05:44:00,
2013-06-30 00:49:00,64.9,59.6,29.84,North,0,0.0,0.0,83,0.00,,,0.00,WUHU21623XXSP,2013-06-30 05:49:00,
2013-06-30 00:54:00,65.1,59.8,29.84,North,0,0.0,0.0,83,0.00,,,0.00,WUHU21623XXSP,2013-06-30 05:54:00,
2013-06-30 00:59:00,65.1,59.8,29.84,North,0,0.0,0.0,83,0.00,,,0.00,WUHU21623XXSP,2013-06-30 05:59:00,
2013-06-30 01:04:00,65.1,59.8,29.84,North,0,0.0,0.0,83,0.00,,,0.00,WUHU21623XXSP,2013-06-30 06:04:00,
2013-06-30 01:12:00,65.1,59.8,29.84,North,0,0.0,0.0,83,0.00,,,0.00,WUHU21623XXSP,2013-06-30 06:12:00,
2013-06-30 01:17:00,65.1,59.8,29.84,North,0,0.0,0.0,83,0.00,,,0.00,WUHU21623XXSP,2013-06-30 06:17:00,
2013-06-30 01:22:00,65.1,59.8,29.84,North,0,0.0,0.0,83,0.00,,,0.00,WUHU21623XXSP,2013-06-30 06:22:00,
2013-06-30 01:27:00,65.1,59.8,29.84,North,0,0.0,0.0,83,0.00,,,0.00,WUHU21623XXSP,2013-06-30 06:27:00,
2013-06-30 01:32:00,65.1,59.8,29.84,North,0,0.0,0.0,83,0.00,,,0.00,WUHU21623XXSP,2013-06-30 06:32:00,
2013-06-30 01:37:00,65.1,59.8,29.84,North,0,0.0,0.0,84,0.00,,,0.00,WUHU21623XXSP,2013-06-30 06:37:00,
2013-06-30 01:42:00,65.1,60.2,29.84,North,0,0.0,0.0,84,0.00,,,0.00,WUHU21623XXSP,2013-06-30 06:42:00,
2013-06-30 01:47:00,65.3,60.3,29.84,North,0,0.0,0.0,84,0.00,,,0.00,WUHU21623XXSP,2013-06-30 06:47:00,
2013-06-30 01:52:00,65.3,60.3,29.84,North,0,0.0,0.0,84,0.00,,,0.00,WUHU21623XXSP,2013-06-30 06:52:00,
2013-06-30 01:57:00,65.3,60.3,29.85,North,0,0.0,0.0,84,0.00,,,0.00,WUHU21623XXSP,2013-06-30 06:57:00,
2013-06-30 02:02:00,65.3,60.3,29.85,North,0,0.0,0.0,84,0.00,,,0.00,WUHU21623XXSP,2013-06-30 07:02:00,
2013-06-30 02:07:00,65.5,60.5,29.85,North,0,0.0,0.0,84,0.00,,,0.00,WUHU21623XXSP,2013-06-30 07:07:00,
2013-06-30 02:12:00,65.5,60.5,29.85,North,0,0.0,0.0,84,0.00,,,0.00,WUHU21623XXSP,2013-06-30 07:12:00,
2013-06-30 02:17:00,65.5,60.5,29.85,North,0,0.0,0.0,84,0.00,,,0.00,WUHU21623XXSP,2013-06-30 07:17:00,
2013-06-30 02:22:00,65.5,60.5,29.85,North,0,0.0,0.0,84,0.00,,,0.00,WUHU21623XXSP,2013-06-30 07:22:00,
2013-06-30 02:27:00,65.5,60.5,29.85,North,0,0.0,0.0,84,0.00,,,0.00,WUHU21623XXSP,2013-06-30 07:27:00,
2013-06-30 02:32:00,65.5,60.8,29.85,North,0,0.0,0.0,85,0.00,,,0.00,WUHU21623XXSP,2013-06-30 07:32:00,
2013-06-30 02:37:00,65.5,60.8,29.85,North,0,0.0,0.0,85,0.00,,,0.00,WUHU21623XXSP,2013-06-30 07:37:00,
2013-06-30 02:42:00,65.5,60.8,29.84,North,0,0.0,0.0,85,0.00,,,0.00,WUHU21623XXSP,2013-06-30 07:42:00,
2013-06-30 02:47:00,65.3,60.7,29.85,North,0,0.0,0.0,85,0.00,,,0.00,WUHU21623XXSP,2013-06-30 07:47:00,
2013-06-30 02:52:00,65.3,60.7,29.84,North,0,0.0,0.0,85,0.00,,,0.00,WUHU21623XXSP,2013-06-30 07:52:00,
2013-06-30 02:57:00,65.3,60.8,29.85,North,0,0.0,0.0,85,0.00,,,0.00,WUHU21623XXSP,2013-06-30 07:57:00,
2013-06-30 03:02:00,65.5,60.8,29.85,North,0,0.0,0.0,85,0.00,,,0.00,WUHU21623XXSP,2013-06-30 08:02:00,
2013-06-30 03:07:00,65.5,60.8,29.85,North,0,0.0,0.0,85,0.00,,,0.00,WUHU21623XXSP,2013-06-30 08:07:00,
2013-06-30 03:12:00,65.5,60.8,29.85,North,0,0.0,0.0,85,0.00,,,0.00,WUHU21623XXSP,2013-06-30 08:12:00,
2013-06-30 03:17:00,65.5,60.8,29.85,North,0,0.0,0.0,85,0.00,,,0.00,WUHU21623XXSP,2013-06-30 08:17:00,
2013-06-30 03:22:00,65.5,60.8,29.85,North,0,0.0,0.0,85,0.00,,,0.00,WUHU21623XXSP,2013-06-30 08:22:00,
2013-06-30 12:39:00,75.6,61.2,29.94,North,0,0.0,0.0,61,0.00,,,0.00,WUHU21623XXSP,2013-06-30 17:39:00,
2013-06-30 12:44:00,75.9,61.4,29.93,North,0,0.0,0.0,61,0.00,,,0.00,WUHU21623XXSP,2013-06-30 17:44:00,
2013-06-30 12:49:00,76.1,62.0,29.93,North,0,0.0,0.0,62,0.00,,,0.00,WUHU21623XXSP,2013-06-30 17:49:00,
2013-06-30 12:54:00,76.3,61.8,29.93,North,0,0.0,0.0,61,0.00,,,0.00,WUHU21623XXSP,2013-06-30 17:54:00,
2013-06-30 12:59:00,75.9,60.6,29.93,North,0,0.0,0.0,59,0.00,,,0.00,WUHU21623XXSP,2013-06-30 17:59:00,
2013-06-30 13:04:00,75.7,60.9,29.93,North,0,0.0,0.0,60,0.00,,,0.00,WUHU21623XXSP,2013-06-30 18:04:00,
2013-06-30 13:09:00,75.7,60.9,29.93,North,0,0.0,0.0,61,0.00,,,0.00,WUHU21623XXSP,2013-06-30 18:09:00,
2013-06-30 13:14:00,75.9,61.5,29.92,North,0,0.0,0.0,61,0.00,,,0.00,WUHU21623XXSP,2013-06-30 18:14:00,
2013-06-30 13:19:00,75.9,61.1,29.92,North,0,0.0,0.0,60,0.00,,,0.00,WUHU21623XXSP,2013-06-30 18:19:00,
2013-06-30 13:24:00,75.6,60.8,29.92,North,0,0.0,0.0,60,0.00,,,0.00,WUHU21623XXSP,2013-06-30 18:24:00,
2013-06-30 13:29:00,75.4,61.0,29.92,North,0,0.0,0.0,61,0.00,,,0.00,WUHU21623XXSP,2013-06-30 18:29:00,
2013-06-30 13:34:00,75.0,61.1,29.93,North,0,0.0,0.0,62,0.00,,,0.00,WUHU21623XXSP,2013-06-30 18:34:00,
2013-06-30 13:39:00,75.4,61.5,29.93,North,0,0.0,0.0,62,0.00,,,0.00,WUHU21623XXSP,2013-06-30 18:39:00,
2013-06-30 19:42:00,73.2,62.1,29.95,North,0,0.0,0.0,68,0.00,,,0.00,WUHU21623XXSP,2013-07-01 00:42:00,
2013-06-30 19:47:00,73.0,61.9,29.96,North,0,0.0,0.0,68,0.00,,,0.00,WUHU21623XXSP,2013-07-01 00:47:00,
2013-06-30 19:52:00,72.9,61.7,29.95,North,0,0.0,0.0,68,0.00,,,0.00,WUHU21623XXSP,2013-07-01 00:52:00,
2013-06-30 19:57:00,72.7,62.0,29.95,North,0,0.0,0.0,69,0.00,,,0.00,WUHU21623XXSP,2013-07-01 00:57:00,
2013-06-30 20:02:00,72.7,62.0,29.95,North,0,0.0,0.0,69,0.00,,,0.00,WUHU21623XXSP,2013-07-01 01:02:00,
2013-06-30 20:07:00,72.5,61.8,29.95,North,0,0.0,0.0,69,0.00,,,0.00,WUHU21623XXSP,2013-07-01 01:07:00,
2013-06-30 20:12:00,72.3,61.6,29.95,North,0,0.0,0.0,69,0.00,,,0.00,WUHU21623XXSP,2013-07-01 01:12:00,
2013-06-30 20:17:00,72.3,61.6,29.96,North,0,0.0,0.0,69,0.00,,,0.00,WUHU21623XXSP,2013-07-01 01:17:00,
2013-06-30 20:22:00,72.1,61.4,29.96,North,0,0.0,0.0,69,0.00,,,0.00,WUHU21623XXSP,2013-07-01 01:22:00,
2013-06-30 20:27:00,72.0,61.3,29.96,North,0,0.0,0.0,69,0.00,,,0.00,WUHU21623XXSP,2013-07-01 01:27:00,
2013-06-30 20:32:00,71.8,61.5,29.96,North,0,0.0,0.0,70,0.00,,,0.00,WUHU21623XXSP,2013-07-01 01:32:00,
2013-06-30 20:37:00,71.8,61.5,29.96,North,0,0.0,0.0,70,0.00,,,0.00,WUHU21623XXSP,2013-07-01 01:37:00,
2013-06-30 20:42:00,71.4,61.2,29.96,North,0,0.0,0.0,70,0.00,,,0.00,WUHU21623XXSP,2013-07-01 01:42:00,
2013-06-30 20:47:00,71.4,61.5,29.96,North,0,0.0,0.0,71,0.00,,,0.00,WUHU21623XXSP,2013-07-01 01:47:00,
2013-06-30 20:52:00,71.2,61.4,29.96,North,0,0.0,0.0,71,0.00,,,0.00,WUHU21623XXSP,2013-07-01 01:52:00,
2013-06-30 20:57:00,71.2,61.7,29.96,North,0,0.0,0.0,72,0.00,,,0.00,WUHU21623XXSP,2013-07-01 01:57:00,
2013-06-30 21:02:00,70.9,61.4,29.96,North,0,0.0,0.0,72,0.00,,,0.00,WUHU21623XXSP,2013-07-01 02:02:00,
2013-06-30 21:07:00,70.9,61.4,29.97,North,0,0.0,0.0,72,0.00,,,0.00,WUHU21623XXSP,2013-07-01 02:07:00,
2013-06-30 21:12:00,70.5,61.4,29.97,North,0,0.0,0.0,73,0.00,,,0.00,WUHU21623XXSP,2013-07-01 02:12:00,
2013-06-30 21:17:00,70.3,61.2,29.97,North,0,0.0,0.0,73,0.00,,,0.00,WUHU21623XXSP,2013-07-01 02:17:00,
2013-06-30 21:22:00,70.3,61.2,29.97,North,0,0.0,0.0,73,0.00,,,0.00,WUHU21623XXSP,2013-07-01 02:22:00,
2013-06-30 21:27:00,70.0,61.2,29.97,North,0,0.0,0.0,74,0.00,,,0.00,WUHU21623XXSP,2013-07-01 02:27:00,
2013-06-30 21:32:00,70.0,61.2,29.98,North,0,0.0,0.0,74,0.00,,,0.00,WUHU21623XXSP,2013-07-01 02:32:00,
2013-06-30 21:37:00,69.6,61.1,29.98,North,0,0.0,0.0,74,0.00,,,0.00,WUHU21623XXSP,2013-07-01 02:37:00,
2013-06-30 21:42:00,69.6,61.3,29.99,North,0,0.0,0.0,75,0.00,,,0.00,WUHU21623XXSP,2013-07-01 02:42:00,
2013-06-30 21:47:00,69.6,61.6,29.99,North,0,0.0,0.0,76,0.00,,,0.00,WUHU21623XXSP,2013-07-01 02:47:00,
2013-06-30 21:52:00,69.6,61.6,29.99,North,0,0.0,0.0,76,0.00,,,0.00,WUHU21623XXSP,2013-07-01 02:52:00,
2013-06-30 21:57:00,69.6,62.0,29.99,North,0,0.0,0.0,77,0.00,,,0.00,WUHU21623XXSP,2013-07-01 02:57:00,
2013-06-30 22:02:00,69.4,61.9,30.00,North,0,0.0,0.0,77,0.00,,,0.00,WUHU21623XXSP,2013-07-01 03:02:00,
2013-06-30 22:07:00,69.4,61.9,30.00,North,0,0.0,0.0,77,0.00,,,0.00,WUHU21623XXSP,2013-07-01 03:07:00,
2013-06-30 22:12:00,69.1,61.5,30.00,North,0,0.0,0.0,77,0.00,,,0.00,WUHU21623XXSP,2013-07-01 03:12:00,
2013-06-30 22:17:00,68.9,61.5,30.00,North,0,0.0,0.0,76,0.00,,,0.00,WUHU21623XXSP,2013-07-01 03:17:00,
2013-06-30 22:23:00,68.7,60.5,30.00,North,0,0.0,0.0,75,0.00,,,0.00,WUHU21623XXSP,2013-07-01 03:23:00,
2013-06-30 22:28:00,68.5,60.3,30.00,North,0,0.0,0.0,75,0.00,,,0.00,WUHU21623XXSP,2013-07-01 03:28:00,
2013-06-30 22:33:00,68.4,60.5,30.00,North,0,0.0,0.0,76,0.00,,,0.00,WUHU21623XXSP,2013-07-01 03:33:00,
2013-06-30 22:38:00,68.2,60.4,30.00,North,0,0.0,0.0,76,0.00,,,0.00,WUHU21623XXSP,2013-07-01 03:38:00,
2013-06-30 22:43:00,67.8,60.0,30.00,North,0,0.0,0.0,76,0.00,,,0.00,WUHU21623XXSP,2013-07-01 03:43:00,
2013-06-30 22:48:00,67.8,60.0,30.00,North,0,0.0,0.0,76,0.00,,,0.00,WUHU21623XXSP,2013-07-01 03:48:00,
2013-06-30 22:53:00,67.6,60.2,30.00,North,0,0.0,0.0,77,0.00,,,0.00,WUHU21623XXSP,2013-07-01 03:53:00,
2013-06-30 22:58:00,67.6,60.2,30.00,North,0,0.0,0.0,77,0.00,,,0.00,WUHU21623XXSP,2013-07-01 03:58:00,
2013-06-30 23:03:00,67.3,59.8,30.00,North,0,0.0,0.0,77,0.00,,,0.00,WUHU21623XXSP,2013-07-01 04:03:00,
2013-06-30 23:05:00,67.3,59.8,30.00,North,0,0.0,0.0,77,0.00,,,0.00,WUHU21623XXSP,2013-07-01 04:05:00,
2013-06-30 23:10:00,67.3,60.2,30.00,North,0,0.0,0.0,78,0.00,,,0.00,WUHU21623XXSP,2013-07-01 04:10:00,
2013-06-30 23:15:00,67.3,60.2,30.00,North,0,0.0,0.0,78,0.00,,,0.00,WUHU21623XXSP,2013-07-01 04:15:00,
2013-06-30 23:20:00,67.3,60.2,30.00,North,0,0.0,0.0,78,0.00,,,0.00,WUHU21623XXSP,2013-07-01 04:20:00,
2013-06-30 23:25:00,67.3,60.2,30.00,North,0,0.0,0.0,78,0.00,,,0.00,WUHU21623XXSP,2013-07-01 04:25:00,
2013-06-30 23:30:00,67.3,60.2,30.00,North,0,0.0,0.0,78,0.00,,,0.00,WUHU21623XXSP,2013-07-01 04:30:00,
2013-06-30 23:35:00,67.3,60.2,30.00,North,0,0.0,0.0,78,0.00,,,0.00,WUHU21623XXSP,2013-07-01 04:35:00,
2013-06-30 23:40:00,67.3,60.2,29.99,North,0,0.0,0.0,78,0.00,,,0.00,WUHU21623XXSP,2013-07-01 04:40:00,
2013-06-30 23:45:00,67.3,60.2,30.00,North,0,0.0,0.0,78,0.00,,,0.00,WUHU21623XXSP,2013-07-01 04:45:00,
2013-06-30 23:50:00,67.3,60.2,30.00,North,0,0.0,0.0,78,0.00,,,0.00,WUHU21623XXSP,2013-07-01 04:50:00,
2013-06-30 23:55:00,67.3,60.2,29.99,North,0,0.0,0.0,78,0.00,,,0.00,WUHU21623XXSP,2013-07-01 04:55:00,